This is the latest recevied weather packets stored in our database for station/object KE5YIM-13. If no packets are shown the sender has not sent any weather packets the latest 10 day(s).
| Time | Temp. | Humidity | Pressure | Rain* | Wind** | Luminosity | Snow |
|---|---|---|---|---|---|---|---|
| 1777986426 | 15.56° C | 80% | 1011.9 hPa | 0 mm | - | 448 W/m² | - |
| 1777986125 | 15.56° C | 80% | 1012.1 hPa | 0 mm | - | 288 W/m² | - |
| 1777985821 | 15.56° C | 80% | 1012.1 hPa | 0 mm | - | 194 W/m² | - |
| 1777985518 | 15.56° C | 81% | 1012.3 hPa | 0 mm | - | 386 W/m² | - |
| 1777985215 | 15° C | 82% | 1012 hPa | 0 mm | - | 214 W/m² | - |
| 1777984911 | 15° C | 83% | 1012.4 hPa | 0 mm | - | 207 W/m² | - |
| 1777984607 | 14.44° C | 84% | 1012.3 hPa | 0 mm | - | 138 W/m² | - |
| 1777984304 | 14.44° C | 86% | 1012.5 hPa | 0 mm | - | 127 W/m² | - |
| 1777984001 | 13.89° C | 88% | 1012.4 hPa | 0 mm | - | 175 W/m² | - |
| 1777983698 | 13.89° C | 92% | 1012.4 hPa | 0 mm | - | 262 W/m² | - |
| 1777983394 | 12.78° C | 93% | 1012.5 hPa | 0 mm | - | 175 W/m² | - |
| 1777983091 | 12.78° C | 95% | 1012.4 hPa | 0 mm | - | 108 W/m² | - |
| 1777982787 | 12.78° C | 96% | 1012.4 hPa | 0 mm | - | 102 W/m² | - |
| 1777982483 | 12.22° C | 96% | 1012.5 hPa | 0 mm | - | 100 W/m² | - |
| 1777982178 | 12.22° C | 97% | 1012.5 hPa | 0 mm | - | 99 W/m² | - |
| 1777981875 | 12.22° C | 98% | 1012.5 hPa | 0 mm | - | 90 W/m² | - |
| 1777981572 | 12.22° C | 98% | 1012.5 hPa | 0 mm | - | 123 W/m² | - |
| 1777981269 | 11.67° C | 99% | 1012.8 hPa | 0 mm | - | 194 W/m² | - |
| 1777980965 | 11.11° C | 99% | 1012.7 hPa | 0 mm | - | 118 W/m² | - |
| 1777980662 | 10.56° C | 99% | 1013 hPa | 0 mm | - | 64 W/m² | - |
| 1777980358 | 10° C | 99% | 1012.8 hPa | 0 mm | - | 59 W/m² | - |
| 1777980057 | 10° C | 99% | 1012.8 hPa | 0 mm | - | 54 W/m² | - |
| 1777979756 | 10° C | 99% | 1012.8 hPa | 0 mm | - | 52 W/m² | - |
| 1777979452 | 9.44° C | 99% | 1012.6 hPa | 0 mm | - | 65 W/m² | - |
| 1777979149 | 8.89° C | 99% | 1012.4 hPa | 0 mm | - | 79 W/m² | - |
* Rain latest hour (hover to see other rain measurements)
** Current wind speed in m/s (hover to see current wind gust speed)